This is the latest recevied weather packets stored in our database for station/object KC5CAM-13. If no packets are shown the sender has not sent any weather packets the latest 10 day(s).
| Time | Temp. | Humidity | Pressure | Rain* | Wind** | Luminosity | Snow |
|---|---|---|---|---|---|---|---|
| 1777555756 | 15.56° C | 88% | 1015.6 hPa | 0 mm | - | 90 W/m² | - |
| 1777555454 | 15° C | 89% | 1015.8 hPa | 0 mm | - | 87 W/m² | - |
| 1777555149 | 15° C | 89% | 1016 hPa | 0 mm | - | 82 W/m² | - |
| 1777554847 | 15° C | 89% | 1015.7 hPa | 0 mm | - | 74 W/m² | - |
| 1777554543 | 14.44° C | 89% | 1015.8 hPa | 0 mm | - | 59 W/m² | - |
| 1777554240 | 14.44° C | 89% | 1015.5 hPa | 0 mm | - | 60 W/m² | - |
| 1777553937 | 14.44° C | 89% | 1015.5 hPa | 0 mm | - | 58 W/m² | - |
| 1777553633 | 14.44° C | 89% | 1015.3 hPa | 0 mm | - | 46 W/m² | - |
| 1777553330 | 13.89° C | 89% | 1015.4 hPa | 0 mm | - | 35 W/m² | - |
| 1777553026 | 13.89° C | 89% | 1015.6 hPa | 0 mm | - | 33 W/m² | - |
| 1777552721 | 13.89° C | 88% | 1015.5 hPa | 0 mm | - | 39 W/m² | - |
| 1777552418 | 13.89° C | 88% | 1015.4 hPa | 0 mm | - | 32 W/m² | - |
| 1777552114 | 13.89° C | 88% | 1015.5 hPa | 0 mm | - | 23 W/m² | - |
| 1777551812 | 13.89° C | 88% | 1015.4 hPa | 0 mm | - | 17 W/m² | - |
| 1777551509 | 13.89° C | 88% | 1015.6 hPa | 0 mm | - | 19 W/m² | - |
| 1777551205 | 13.89° C | 88% | 1015.5 hPa | 0 mm | - | 17 W/m² | - |
| 1777550903 | 13.33° C | 88% | 1015.5 hPa | 0 mm | - | 12 W/m² | - |
| 1777550599 | 13.33° C | 88% | 1015.1 hPa | 0 mm | - | 11 W/m² | - |
| 1777550295 | 13.33° C | 88% | 1015.1 hPa | 0 mm | - | 6 W/m² | - |
| 1777549992 | 13.33° C | 88% | 1015.2 hPa | 0 mm | - | 3 W/m² | - |
| 1777549689 | 13.33° C | 88% | 1015.2 hPa | 0 mm | - | 1 W/m² | - |
| 1777549383 | 13.33° C | 88% | 1015 hPa | 0 mm | - | 0 W/m² | - |
| 1777549081 | 13.33° C | 88% | 1015.1 hPa | 0 mm | - | 0 W/m² | - |
| 1777548776 | 13.33° C | 87% | 1015.4 hPa | 0 mm | - | 0 W/m² | - |
| 1777548474 | 13.33° C | 87% | 1015.5 hPa | 0 mm | - | 0 W/m² | - |
* Rain latest hour (hover to see other rain measurements)
** Current wind speed in m/s (hover to see current wind gust speed)